This demonstration page uses our WeatherBlox Daily Observations layout. Learn more.

Left ArrowRight Arrow

39.08367, -84.50855

Hourly Observations for March 31, 2017

Temp ( °F °C ) Dew Point ( °F °C ) Humidity (%) Winds ( mph kmh ) Pressure ( in mb ) Visibility ( mi km ) Precip ( " mm )
12:29 am 00:29 Cloudy with Heavy Rain 58 14.4 58 14.4 100 100 E 9 15 29.68 1005 4 6 0.06 1.52
12:37 am 00:37 Cloudy with Rain 59 15 59 15 100 100 E 7 11 29.68 1005 4 6 0.10 2.54
12:46 am 00:46 Cloudy with Heavy Rain 57 14 57 14 100 100 S 5 7 29.71 1006 4 6 N/A
12:53 am 00:53 Cloudy with Heavy Rain 59 15 58 14.4 96 96 S 3 6 29.70 1006 3 4 0.18 4.57
1:05 am 01:05 Cloudy with Heavy Rain 58 14.4 58 14.4 100 100 N N/A 29.71 1006 2 3 0.08 2.03
1:12 am 01:12 Cloudy with Heavy Rain 57 14 57 14 100 100 NE 7 11 29.68 1005 3 5 N/A
1:53 am 01:53 Cloudy with Light Rain 58 14.4 58 14.4 100 100 E 3 6 29.65 1004 10 16 0.16 4.06
2:53 am 02:53 Cloudy with Light Rain 57 13.9 57 13.9 100 100 N N/A 29.62 1003 9 14 0.04 1.02
3:49 am 03:49 Cloudy with Mist and Fog 55 13 55 13 100 100 SE 3 6 29.62 1003 6 10 0.01 0.25
3:53 am 03:53 Cloudy with Light Rain 56 13.3 56 13.3 100 100 SE 5 7 29.61 1003 6 10 0.01 0.25
4:53 am 04:53 Cloudy with Light Rain 57 13.9 57 13.9 100 100 N N/A 29.61 1003 8 13 0.01 0.25
5:53 am 05:53 Cloudy 57 13.9 56 13.3 96 96 N N/A 29.58 1002 10 16 0.01 0.25
6:53 am 06:53 Cloudy with Light Rain 55 12.8 55 12.8 100 100 SSW 3 6 29.59 1002 9 14 0.02 0.51
7:53 am 07:53 Cloudy 57 13.9 56 13.3 96 96 SW 6 9 29.60 1002 10 16 N/A
8:53 am 08:53 Cloudy 55 12.8 53 11.7 93 93 SW 13 20 29.61 1003 10 16 N/A
9:10 am 09:10 Cloudy 55 13 54 12 94 94 SW 9 15 29.62 1003 10 16 N/A
9:53 am 09:53 Cloudy 55 12.8 53 11.7 93 93 SSW 10 17 29.62 1003 10 16 N/A
10:53 am 10:53 Cloudy 55 12.8 53 11.7 93 93 SW 7 11 29.64 1004 10 16 N/A
11:53 am 11:53 Cloudy with Light Rain 56 13.3 53 11.7 90 90 SW 10 17 29.66 1005 7 11 N/A
12:02 pm 12:02 Cloudy 55 13 52 11 88 88 WSW 15 24 29.68 1005 10 16 N/A
12:43 pm 12:43 Cloudy with Light Rain 54 12.2 52 11.1 93 93 WSW 12 19 29.68 1005 10 16 0.01 0.25
12:53 pm 12:53 Cloudy with Light Rain 55 12.8 52 11.1 90 90 SW 14 22 29.68 1005 8 13 0.01 0.25
1:53 pm 13:53 Cloudy 56 13.3 51 10.6 84 84 WSW 14 22 29.69 1006 10 16 N/A
2:22 pm 14:22 Cloudy 56 13.3 50 10 81 81 W 10 17 29.71 1006 10 16 N/A
2:32 pm 14:32 Cloudy 55 13 50 10 82 82 W 12 19 29.71 1006 10 16 N/A
2:53 pm 14:53 Cloudy 56 13.3 50 10 81 81 WSW 14 22 29.71 1006 10 16 N/A
3:53 pm 15:53 Cloudy with Light Rain 54 12.2 51 10.6 90 90 W 14 22 29.73 1007 8 13 N/A
4:53 pm 16:53 Cloudy 55 12.8 52 11.1 90 90 SW 8 13 29.75 1007 10 16 N/A
5:16 pm 17:16 Cloudy 55 13 52 11 88 88 WSW 9 15 29.77 1008 10 16 N/A
5:53 pm 17:53 Cloudy 55 12.8 50 10 83 83 W 12 19 29.77 1008 10 16 N/A
6:53 pm 18:53 Cloudy 53 11.7 50 10 89 89 WNW 14 22 29.81 1010 10 16 N/A
7:53 pm 19:53 Cloudy 51 10.6 46 7.8 83 83 W 16 26 29.85 1011 10 16 N/A
8:53 pm 20:53 Cloudy 48 8.9 46 7.8 93 93 W 10 17 29.89 1012 10 16 N/A
9:16 pm 21:16 Cloudy 48 9 45 7 87 87 NW 10 17 29.94 1014 10 16 N/A
9:53 pm 21:53 Cloudy 47 8.3 44 6.7 90 90 WNW 9 15 29.92 1013 10 16 N/A
10:53 pm 22:53 Cloudy 46 7.8 42 5.6 86 86 NW 9 15 29.94 1014 10 16 N/A
11:53 pm 23:53 Cloudy 45 7.2 42 5.6 90 90 WNW 6 9 29.96 1014 10 16 N/A

Powered by AerisWeather